Time,TemperatureF,DewpointF,PressureIn,WindDirection,WindDirectionDegrees,WindSpeedMPH,WindSpeedGustMPH,Humidity,HourlyPrecipIn,Conditions,Clouds,dailyrainin,SoftwareType,DateUTC
2013-10-08 00:01:00,47.3,46.8,28.85,North,0,1.3,1.3,98,0.04,,RA,0.00,VWS V14.01,2013-10-08 07:01:00,
2013-10-08 00:05:00,47.3,46.8,28.85,North,0,2.5,2.5,98,0.04,,RA,0.00,VWS V14.01,2013-10-08 07:05:00,
2013-10-08 00:10:00,47.1,46.6,28.85,NNW,338,0.0,0.0,98,0.04,,RA,0.00,VWS V14.01,2013-10-08 07:10:00,
2013-10-08 00:15:00,47.1,46.6,28.85,WNW,292,0.0,0.0,98,0.04,,RA,0.00,VWS V14.01,2013-10-08 07:15:00,
2013-10-08 00:20:00,47.1,46.6,28.85,NE,45,1.1,1.1,98,0.04,,RA,0.00,VWS V14.01,2013-10-08 07:20:00,
2013-10-08 00:25:00,47.1,46.6,28.85,NNW,338,1.1,1.1,98,0.04,,RA,0.00,VWS V14.01,2013-10-08 07:25:00,
2013-10-08 00:30:00,47.3,46.8,28.85,SE,135,0.0,0.0,98,0.00,,RA,0.00,VWS V14.01,2013-10-08 07:30:00,
2013-10-08 00:35:00,47.3,46.8,28.85,SSW,202,1.3,1.3,98,0.00,,RA,0.00,VWS V14.01,2013-10-08 07:35:00,
2013-10-08 00:40:00,47.3,46.8,28.85,NW,315,0.0,0.0,98,0.04,,RA,0.04,VWS V14.01,2013-10-08 07:40:00,
2013-10-08 00:45:00,47.3,46.8,28.85,SSE,158,0.0,0.0,98,0.04,,RA,0.04,VWS V14.01,2013-10-08 07:45:00,
2013-10-08 00:50:00,47.3,46.8,28.85,WSW,248,0.0,0.0,98,0.04,,RA,0.04,VWS V14.01,2013-10-08 07:50:00,
2013-10-08 00:55:00,47.3,46.8,28.85,WNW,292,2.2,2.2,98,0.04,,RA,0.04,VWS V14.01,2013-10-08 07:55:00,
2013-10-08 01:00:00,47.3,46.8,28.85,WSW,248,3.1,3.1,98,0.04,,RA,0.04,VWS V14.01,2013-10-08 08:00:00,
2013-10-08 01:05:00,47.5,47.0,28.85,NNE,22,2.2,2.2,98,0.04,,RA,0.04,VWS V14.01,2013-10-08 08:05:00,
2013-10-08 01:10:00,47.7,47.1,28.85,NNE,22,1.6,1.6,98,0.04,,RA,0.04,VWS V14.01,2013-10-08 08:10:00,
2013-10-08 01:15:00,47.7,47.1,28.85,WSW,248,1.3,1.3,98,0.04,,RA,0.04,VWS V14.01,2013-10-08 08:15:00,
2013-10-08 01:20:00,47.7,47.1,28.85,WNW,292,1.6,1.6,98,0.04,,RA,0.04,VWS V14.01,2013-10-08 08:20:00,
2013-10-08 01:25:00,47.7,47.1,28.85,NNW,338,1.1,1.1,98,0.04,,RA,0.04,VWS V14.01,2013-10-08 08:25:00,
2013-10-08 01:30:00,47.5,47.0,28.85,ENE,68,0.0,0.0,98,0.04,,RA,0.04,VWS V14.01,2013-10-08 08:30:00,
2013-10-08 01:35:00,47.5,47.0,28.85,NE,45,1.1,1.1,98,0.04,,RA,0.04,VWS V14.01,2013-10-08 08:35:00,
2013-10-08 01:40:00,47.5,47.0,28.85,NNW,338,4.7,4.7,98,0.04,,RA,0.04,VWS V14.01,2013-10-08 08:40:00,
2013-10-08 01:45:00,47.5,47.0,28.85,NNE,22,2.5,2.5,98,0.04,,RA,0.04,VWS V14.01,2013-10-08 08:45:00,
2013-10-08 01:50:00,47.5,47.0,28.85,ENE,68,1.3,1.3,98,0.04,,RA,0.04,VWS V14.01,2013-10-08 08:50:00,
2013-10-08 01:55:00,47.5,47.0,28.85,North,0,2.0,2.0,98,0.04,,RA,0.04,VWS V14.01,2013-10-08 08:55:00,
2013-10-08 02:00:00,47.5,47.0,28.85,East,90,0.0,0.0,98,0.00,,RA,0.04,VWS V14.01,2013-10-08 09:00:00,
2013-10-08 02:05:00,47.5,47.0,28.85,WNW,292,3.8,3.8,98,0.00,,BKN055,0.04,VWS V14.01,2013-10-08 09:05:00,
2013-10-08 02:10:00,47.5,47.0,28.85,SW,225,0.0,0.0,98,0.00,,BKN055,0.04,VWS V14.01,2013-10-08 09:10:00,
2013-10-08 02:15:00,47.5,47.0,28.85,SSW,202,2.0,2.0,98,0.00,,BKN055,0.04,VWS V14.01,2013-10-08 09:15:00,
2013-10-08 02:20:00,47.5,47.0,28.85,NNW,338,1.3,1.3,98,0.00,,BKN055,0.04,VWS V14.01,2013-10-08 09:20:00,
2013-10-08 02:25:00,47.5,47.0,28.85,WNW,292,2.2,2.2,98,0.00,,BKN055,0.04,VWS V14.01,2013-10-08 09:25:00,
2013-10-08 02:30:00,47.5,47.0,28.85,WSW,248,2.5,2.5,98,0.00,,BKN055,0.04,VWS V14.01,2013-10-08 09:30:00,
2013-10-08 02:35:00,47.5,47.0,28.85,East,90,1.3,1.3,98,0.00,,BKN055,0.04,VWS V14.01,2013-10-08 09:35:00,
2013-10-08 02:40:00,47.3,46.8,28.85,West,270,3.6,3.6,98,0.00,,BKN055,0.04,VWS V14.01,2013-10-08 09:40:00,
2013-10-08 02:45:00,47.3,46.5,28.88,SW,225,1.6,1.6,97,0.00,,BKN055,0.04,VWS V14.01,2013-10-08 09:45:00,
2013-10-08 02:50:00,47.1,46.3,28.88,WNW,292,3.1,3.1,97,0.00,,BKN055,0.04,VWS V14.01,2013-10-08 09:50:00,
2013-10-08 02:55:00,47.1,46.3,28.88,NW,315,0.0,0.0,97,0.00,,BKN055,0.04,VWS V14.01,2013-10-08 09:55:00,
2013-10-08 03:00:00,46.9,46.1,28.85,South,180,4.7,4.7,97,0.00,,BKN055,0.04,VWS V14.01,2013-10-08 10:00:00,
2013-10-08 03:05:00,46.9,46.1,28.85,WSW,248,2.0,2.0,97,0.00,,OVC060,0.04,VWS V14.01,2013-10-08 10:05:00,
2013-10-08 03:10:00,46.9,46.4,28.85,SW,225,3.4,3.4,98,0.00,,OVC060,0.04,VWS V14.01,2013-10-08 10:10:00,
2013-10-08 03:15:00,46.9,46.1,28.85,WSW,248,4.3,4.3,97,0.00,,OVC060,0.04,VWS V14.01,2013-10-08 10:15:00,
2013-10-08 03:20:00,47.1,46.3,28.85,SW,225,4.0,4.0,97,0.00,,OVC060,0.04,VWS V14.01,2013-10-08 10:20:00,
2013-10-08 03:25:00,46.9,46.1,28.85,SW,225,4.3,4.3,97,0.00,,OVC060,0.04,VWS V14.01,2013-10-08 10:25:00,
2013-10-08 03:30:00,46.9,46.1,28.85,SW,225,2.5,2.5,97,0.00,,OVC060,0.04,VWS V14.01,2013-10-08 10:30:00,
2013-10-08 03:35:00,46.9,46.1,28.85,WNW,292,0.0,0.0,97,0.00,,OVC060,0.04,VWS V14.01,2013-10-08 10:35:00,
2013-10-08 03:40:00,46.8,46.0,28.85,WNW,292,0.0,0.0,97,0.00,,OVC060,0.04,VWS V14.01,2013-10-08 10:40:00,
2013-10-08 03:45:00,46.8,46.0,28.85,WSW,248,1.3,1.3,97,0.00,,OVC060,0.04,VWS V14.01,2013-10-08 10:45:00,
2013-10-08 03:50:00,46.8,46.0,28.85,WSW,248,1.6,1.6,97,0.05,,OVC060,0.09,VWS V14.01,2013-10-08 10:50:00,
2013-10-08 03:55:00,46.8,46.0,28.85,SSW,202,2.0,2.0,97,0.05,,OVC060,0.09,VWS V14.01,2013-10-08 10:55:00,
2013-10-08 04:00:00,46.6,46.0,28.85,East,90,3.1,3.1,98,0.05,,OVC060,0.09,VWS V14.01,2013-10-08 11:00:00,
2013-10-08 04:05:00,46.6,46.0,28.85,SW,225,1.6,1.6,98,0.05,,OVC065,0.09,VWS V14.01,2013-10-08 11:05:00,
2013-10-08 04:10:00,46.6,46.0,28.85,North,0,0.0,0.0,98,0.05,,OVC065,0.09,VWS V14.01,2013-10-08 11:10:00,
2013-10-08 04:15:00,46.6,46.0,28.85,West,270,1.1,1.1,98,0.05,,OVC065,0.09,VWS V14.01,2013-10-08 11:15:00,
2013-10-08 04:20:00,46.6,46.0,28.85,North,0,2.2,2.2,98,0.05,,OVC065,0.09,VWS V14.01,2013-10-08 11:20:00,
2013-10-08 04:25:00,46.6,46.0,28.85,NNE,22,1.1,1.1,98,0.05,,OVC065,0.09,VWS V14.01,2013-10-08 11:25:00,
2013-10-08 04:30:00,46.6,46.0,28.85,North,0,1.3,1.3,98,0.05,,OVC065,0.09,VWS V14.01,2013-10-08 11:30:00,
2013-10-08 04:35:00,46.4,45.9,28.85,North,0,0.0,0.0,98,0.05,,OVC065,0.09,VWS V14.01,2013-10-08 11:35:00,
2013-10-08 04:40:00,46.4,45.9,28.85,NE,45,2.0,2.0,98,0.05,,OVC065,0.09,VWS V14.01,2013-10-08 11:40:00,
2013-10-08 04:45:00,46.4,45.9,28.85,East,90,0.0,0.0,98,0.05,,OVC065,0.09,VWS V14.01,2013-10-08 11:45:00,
2013-10-08 04:50:00,46.2,45.7,28.85,East,90,0.0,0.0,98,0.05,,OVC065,0.09,VWS V14.01,2013-10-08 11:50:00,
2013-10-08 04:55:00,46.2,45.7,28.85,East,90,0.0,0.0,98,0.05,,OVC065,0.09,VWS V14.01,2013-10-08 11:55:00,
2013-10-08 05:00:00,46.2,45.7,28.85,East,90,0.0,0.0,98,0.05,,OVC065,0.09,VWS V14.01,2013-10-08 12:00:00,
2013-10-08 05:05:00,46.2,45.7,28.85,ENE,68,0.0,0.0,98,0.00,,OVC055,0.09,VWS V14.01,2013-10-08 12:05:00,
2013-10-08 05:10:00,46.2,45.7,28.85,ENE,68,0.0,0.0,98,0.00,,OVC055,0.09,VWS V14.01,2013-10-08 12:10:00,
2013-10-08 05:15:00,46.2,45.7,28.82,WSW,248,0.0,0.0,98,0.00,,OVC055,0.09,VWS V14.01,2013-10-08 12:15:00,
2013-10-08 05:20:00,46.0,45.5,28.82,SSW,202,0.0,0.0,98,0.00,,OVC055,0.09,VWS V14.01,2013-10-08 12:20:00,
2013-10-08 05:25:00,46.0,45.5,28.82,SSW,202,0.0,0.0,98,0.00,,OVC055,0.09,VWS V14.01,2013-10-08 12:25:00,
2013-10-08 05:30:00,46.0,45.5,28.82,SSE,158,0.0,0.0,98,0.00,,OVC055,0.09,VWS V14.01,2013-10-08 12:30:00,
2013-10-08 05:35:00,46.0,45.5,28.82,SSW,202,0.0,0.0,98,0.00,,OVC055,0.09,VWS V14.01,2013-10-08 12:35:00,
2013-10-08 05:40:00,46.2,45.7,28.82,West,270,0.0,0.0,98,0.00,,OVC055,0.09,VWS V14.01,2013-10-08 12:40:00,
2013-10-08 05:45:00,46.2,45.7,28.82,WNW,292,0.0,0.0,98,0.00,,OVC055,0.09,VWS V14.01,2013-10-08 12:45:00,
2013-10-08 05:50:00,46.2,45.7,28.82,NNW,338,0.0,0.0,98,0.00,,OVC055,0.09,VWS V14.01,2013-10-08 12:50:00,
2013-10-08 05:55:00,46.2,45.7,28.82,South,180,1.3,1.3,98,0.00,,OVC055,0.09,VWS V14.01,2013-10-08 12:55:00,
2013-10-08 06:00:00,46.2,45.7,28.82,NNW,338,0.0,0.0,98,0.00,,OVC055,0.09,VWS V14.01,2013-10-08 13:00:00,
2013-10-08 06:05:00,46.4,45.9,28.82,WSW,248,2.0,2.0,98,0.04,,BKN060,0.13,VWS V14.01,2013-10-08 13:05:00,
2013-10-08 06:10:00,46.4,45.9,28.82,SW,225,2.5,2.5,98,0.04,,BKN060,0.13,VWS V14.01,2013-10-08 13:10:00,
2013-10-08 06:15:00,46.4,45.9,28.82,NW,315,0.0,0.0,98,0.04,,BKN060,0.13,VWS V14.01,2013-10-08 13:15:00,
2013-10-08 06:20:00,46.4,45.9,28.82,WNW,292,0.0,0.0,98,0.04,,BKN060,0.13,VWS V14.01,2013-10-08 13:20:00,
2013-10-08 06:24:00,46.4,45.9,28.82,East,90,0.0,0.0,98,0.04,,BKN060,0.13,VWS V14.01,2013-10-08 13:24:00,
2013-10-08 06:29:00,46.2,45.7,28.82,North,0,2.5,2.5,98,0.04,,BKN060,0.13,VWS V14.01,2013-10-08 13:29:00,
2013-10-08 06:34:00,46.2,45.7,28.82,NW,315,3.4,3.4,98,0.04,,BKN060,0.13,VWS V14.01,2013-10-08 13:34:00,
2013-10-08 06:39:00,46.2,45.7,28.82,West,270,3.4,3.4,98,0.04,,BKN060,0.13,VWS V14.01,2013-10-08 13:39:00,
2013-10-08 06:44:00,46.2,45.7,28.82,WSW,248,1.3,1.3,98,0.04,,BKN060,0.13,VWS V14.01,2013-10-08 13:44:00,
2013-10-08 06:49:00,46.2,45.7,28.82,WNW,292,2.0,2.0,98,0.04,,BKN060,0.13,VWS V14.01,2013-10-08 13:49:00,
2013-10-08 06:54:00,46.2,45.7,28.82,WSW,248,2.5,2.5,98,0.04,,BKN060,0.13,VWS V14.01,2013-10-08 13:54:00,
2013-10-08 06:59:00,46.2,45.7,28.82,SSW,202,2.0,2.0,98,0.04,,BKN060,0.13,VWS V14.01,2013-10-08 13:59:00,
2013-10-08 07:04:00,46.0,45.5,28.82,WSW,248,2.5,2.5,98,0.00,,,0.13,VWS V14.01,2013-10-08 14:04:00,
2013-10-08 07:09:00,46.0,45.5,28.82,North,0,1.3,1.3,98,0.00,,,0.13,VWS V14.01,2013-10-08 14:09:00,
2013-10-08 07:14:00,46.0,45.5,28.82,North,0,3.8,3.8,98,0.04,,,0.17,VWS V14.01,2013-10-08 14:14:00,
2013-10-08 07:19:00,45.9,45.3,28.82,NNW,338,0.0,0.0,98,0.04,,,0.17,VWS V14.01,2013-10-08 14:19:00,
2013-10-08 07:24:00,45.9,45.3,28.82,North,0,0.0,0.0,98,0.04,,,0.17,VWS V14.01,2013-10-08 14:24:00,
2013-10-08 07:29:00,45.9,45.3,28.79,SW,225,0.0,0.0,98,0.08,,,0.21,VWS V14.01,2013-10-08 14:29:00,
2013-10-08 07:34:00,45.9,45.3,28.79,WSW,248,0.0,0.0,98,0.08,,,0.21,VWS V14.01,2013-10-08 14:34:00,
2013-10-08 07:39:00,45.9,45.3,28.79,WSW,248,0.0,0.0,98,0.08,,,0.21,VWS V14.01,2013-10-08 14:39:00,
2013-10-08 07:44:00,45.9,45.3,28.79,North,0,0.9,0.9,98,0.08,,,0.21,VWS V14.01,2013-10-08 14:44:00,
2013-10-08 07:49:00,45.9,45.3,28.79,NW,315,3.1,3.1,98,0.12,,,0.25,VWS V14.01,2013-10-08 14:49:00,
2013-10-08 07:54:00,46.0,45.5,28.79,NNW,338,2.0,2.0,98,0.12,,,0.25,VWS V14.01,2013-10-08 14:54:00,
2013-10-08 07:59:00,46.2,45.7,28.82,NW,315,1.6,1.6,98,0.12,,,0.25,VWS V14.01,2013-10-08 14:59:00,
2013-10-08 08:04:00,46.2,45.7,28.82,NNE,22,3.4,3.4,98,0.12,,-RA,0.25,VWS V14.01,2013-10-08 15:04:00,
2013-10-08 08:09:00,46.4,45.9,28.82,NNW,338,3.8,3.8,98,0.12,,-RA,0.25,VWS V14.01,2013-10-08 15:09:00,
2013-10-08 08:14:00,46.4,45.9,28.79,WNW,292,2.0,2.0,98,0.12,,-RA,0.25,VWS V14.01,2013-10-08 15:14:00,
2013-10-08 08:19:00,46.4,45.9,28.79,North,0,2.2,2.2,98,0.12,,-RA,0.25,VWS V14.01,2013-10-08 15:19:00,
2013-10-08 08:24:00,46.4,45.9,28.79,NNW,338,2.5,2.5,98,0.16,,-RA,0.29,VWS V14.01,2013-10-08 15:24:00,
2013-10-08 08:29:00,46.6,46.0,28.79,North,0,4.9,4.9,98,0.16,,-RA,0.29,VWS V14.01,2013-10-08 15:29:00,
2013-10-08 08:34:00,46.6,46.0,28.79,NE,45,3.4,3.4,98,0.08,,-RA,0.29,VWS V14.01,2013-10-08 15:34:00,
2013-10-08 08:39:00,46.6,46.0,28.79,NNE,22,3.6,3.6,98,0.08,,-RA,0.29,VWS V14.01,2013-10-08 15:39:00,
2013-10-08 08:44:00,46.4,45.9,28.79,NW,315,4.7,4.7,98,0.08,,-RA,0.29,VWS V14.01,2013-10-08 15:44:00,
2013-10-08 08:49:00,46.6,46.0,28.79,NW,315,3.6,3.6,98,0.08,,-RA,0.29,VWS V14.01,2013-10-08 15:49:00,
2013-10-08 08:54:00,46.6,46.0,28.79,WNW,292,2.9,2.9,98,0.08,,-RA,0.29,VWS V14.01,2013-10-08 15:54:00,
2013-10-08 08:59:00,46.6,46.0,28.76,NNW,338,3.8,3.8,98,0.12,,-RA,0.33,VWS V14.01,2013-10-08 15:59:00,
2013-10-08 09:04:00,46.6,46.0,28.76,ESE,112,0.9,0.9,98,0.08,,-RA,0.33,VWS V14.01,2013-10-08 16:04:00,
2013-10-08 09:09:00,46.6,46.0,28.76,NNW,338,2.5,2.5,98,0.12,,-RA,0.37,VWS V14.01,2013-10-08 16:09:00,
2013-10-08 09:14:00,46.6,45.8,28.76,North,0,0.0,0.0,97,0.12,,-RA,0.37,VWS V14.01,2013-10-08 16:14:00,
2013-10-08 09:19:00,46.6,45.8,28.76,NNW,338,1.3,1.3,97,0.12,,-RA,0.37,VWS V14.01,2013-10-08 16:19:00,
2013-10-08 09:24:00,46.6,46.0,28.76,NNW,338,0.0,0.0,98,0.12,,-RA,0.37,VWS V14.01,2013-10-08 16:24:00,
2013-10-08 09:29:00,46.6,46.0,28.76,WSW,248,0.0,0.0,98,0.12,,-RA,0.37,VWS V14.01,2013-10-08 16:29:00,
2013-10-08 09:34:00,46.8,46.0,28.76,North,0,2.7,2.7,97,0.08,,-RA,0.37,VWS V14.01,2013-10-08 16:34:00,
2013-10-08 09:39:00,46.8,46.0,28.76,NNW,338,0.0,0.0,97,0.08,,-RA,0.37,VWS V14.01,2013-10-08 16:39:00,
2013-10-08 09:44:00,46.8,46.0,28.76,NNW,338,1.1,1.1,97,0.13,,-RA,0.42,VWS V14.01,2013-10-08 16:44:00,
2013-10-08 09:49:00,46.8,46.2,28.76,WNW,292,1.1,1.1,98,0.13,,-RA,0.42,VWS V14.01,2013-10-08 16:49:00,
2013-10-08 09:54:00,46.8,46.2,28.76,WNW,292,3.1,3.1,98,0.13,,-RA,0.42,VWS V14.01,2013-10-08 16:54:00,
2013-10-08 09:59:00,46.8,46.2,28.76,SW,225,2.5,2.5,98,0.17,,-RA,0.46,VWS V14.01,2013-10-08 16:59:00,
2013-10-08 10:04:00,46.8,46.2,28.76,South,180,3.8,3.8,98,0.13,,SCT050,0.46,VWS V14.01,2013-10-08 17:04:00,
2013-10-08 10:09:00,46.8,46.2,28.76,NNW,338,0.0,0.0,98,0.13,,SCT050,0.46,VWS V14.01,2013-10-08 17:09:00,
2013-10-08 10:14:00,46.9,46.4,28.76,North,0,0.0,0.0,98,0.13,,SCT050,0.46,VWS V14.01,2013-10-08 17:14:00,
2013-10-08 10:19:00,46.9,46.4,28.76,WSW,248,2.2,2.2,98,0.13,,SCT050,0.46,VWS V14.01,2013-10-08 17:19:00,
2013-10-08 10:24:00,46.9,46.1,28.76,South,180,0.0,0.0,97,0.17,,SCT050,0.50,VWS V14.01,2013-10-08 17:24:00,
2013-10-08 10:29:00,46.8,46.0,28.76,WNW,292,3.8,3.8,97,0.17,,SCT050,0.50,VWS V14.01,2013-10-08 17:29:00,
2013-10-08 10:34:00,46.8,45.7,28.76,SW,225,2.0,2.0,96,0.13,,SCT050,0.50,VWS V14.01,2013-10-08 17:34:00,
2013-10-08 10:39:00,46.9,45.9,28.76,NE,45,0.0,0.0,96,0.13,,SCT050,0.50,VWS V14.01,2013-10-08 17:39:00,
2013-10-08 10:44:00,46.9,46.1,28.76,SSW,202,2.2,2.2,97,0.13,,SCT050,0.50,VWS V14.01,2013-10-08 17:44:00,
2013-10-08 10:49:00,47.3,46.5,28.76,WNW,292,2.7,2.7,97,0.13,,SCT050,0.50,VWS V14.01,2013-10-08 17:49:00,
2013-10-08 10:54:00,47.5,46.7,28.76,SW,225,3.6,3.6,97,0.13,,SCT050,0.50,VWS V14.01,2013-10-08 17:54:00,
2013-10-08 10:59:00,47.5,46.1,28.76,SSW,202,1.3,1.3,95,0.13,,SCT050,0.50,VWS V14.01,2013-10-08 17:59:00,
2013-10-08 11:04:00,47.7,46.3,28.76,SW,225,1.1,1.1,95,0.04,,SCT070,0.50,VWS V14.01,2013-10-08 18:04:00,
2013-10-08 11:09:00,48.4,47.0,28.76,WSW,248,4.0,4.0,95,0.04,,SCT070,0.50,VWS V14.01,2013-10-08 18:09:00,
2013-10-08 11:14:00,48.4,46.7,28.76,SW,225,5.6,5.6,94,0.04,,SCT070,0.50,VWS V14.01,2013-10-08 18:14:00,
2013-10-08 11:19:00,48.2,46.0,28.76,WSW,248,3.4,3.4,92,0.04,,SCT070,0.50,VWS V14.01,2013-10-08 18:19:00,
2013-10-08 11:24:00,48.4,46.2,28.76,WNW,292,1.6,1.6,92,0.04,,SCT070,0.50,VWS V14.01,2013-10-08 18:24:00,
2013-10-08 11:29:00,49.6,47.7,28.76,NW,315,0.9,0.9,93,0.04,,SCT070,0.50,VWS V14.01,2013-10-08 18:29:00,
2013-10-08 11:34:00,49.5,46.1,28.76,WSW,248,2.9,2.9,88,0.00,,SCT070,0.50,VWS V14.01,2013-10-08 18:34:00,
2013-10-08 11:39:00,49.6,46.8,28.76,North,0,1.3,1.3,90,0.00,,SCT070,0.50,VWS V14.01,2013-10-08 18:39:00,
2013-10-08 11:44:00,49.6,46.2,28.76,WSW,248,2.9,2.9,88,0.00,,SCT070,0.50,VWS V14.01,2013-10-08 18:44:00,
2013-10-08 11:49:00,49.5,45.5,28.76,NNW,338,2.9,2.9,86,0.00,,SCT070,0.50,VWS V14.01,2013-10-08 18:49:00,
2013-10-08 11:54:00,49.5,46.4,28.76,NW,315,2.5,2.5,89,0.00,,SCT070,0.50,VWS V14.01,2013-10-08 18:54:00,
2013-10-08 11:59:00,49.3,46.5,28.73,SE,135,0.0,0.0,90,0.00,,SCT070,0.50,VWS V14.01,2013-10-08 18:59:00,
2013-10-08 12:04:00,49.3,46.5,28.73,SW,225,2.0,2.0,90,0.00,,CLR,0.50,VWS V14.01,2013-10-08 19:04:00,
2013-10-08 12:09:00,49.3,46.5,28.73,West,270,1.6,1.6,90,0.00,,CLR,0.50,VWS V14.01,2013-10-08 19:09:00,
2013-10-08 12:14:00,49.6,47.1,28.73,SW,225,1.1,1.1,91,0.00,,CLR,0.50,VWS V14.01,2013-10-08 19:14:00,
2013-10-08 12:19:00,49.5,47.0,28.73,SW,225,5.8,5.8,91,0.00,,CLR,0.50,VWS V14.01,2013-10-08 19:19:00,
2013-10-08 12:24:00,48.7,45.7,28.73,North,0,2.9,2.9,89,0.04,,CLR,0.54,VWS V14.01,2013-10-08 19:24:00,
2013-10-08 12:29:00,48.6,45.8,28.73,WNW,292,4.0,4.0,90,0.04,,CLR,0.54,VWS V14.01,2013-10-08 19:29:00,
2013-10-08 12:34:00,48.0,45.5,28.73,WSW,248,3.8,3.8,91,0.04,,CLR,0.54,VWS V14.01,2013-10-08 19:34:00,
2013-10-08 12:39:00,47.5,45.0,28.73,West,270,3.4,3.4,91,0.04,,CLR,0.54,VWS V14.01,2013-10-08 19:39:00,
2013-10-08 12:44:00,47.3,44.8,28.73,WNW,292,3.8,3.8,91,0.08,,CLR,0.58,VWS V14.01,2013-10-08 19:44:00,
2013-10-08 12:48:00,47.3,45.1,28.73,West,270,5.8,5.8,92,0.08,,CLR,0.58,VWS V14.01,2013-10-08 19:48:00,
2013-10-08 12:54:00,47.1,44.9,28.73,WSW,248,7.8,7.8,92,0.08,,CLR,0.58,VWS V14.01,2013-10-08 19:54:00,
2013-10-08 12:59:00,47.1,45.5,28.73,WSW,248,2.9,2.9,94,0.08,,CLR,0.58,VWS V14.01,2013-10-08 19:59:00,
2013-10-08 13:04:00,47.3,45.7,28.73,SSW,202,2.7,2.7,94,0.08,,OVC060,0.58,VWS V14.01,2013-10-08 20:04:00,
2013-10-08 13:09:00,48.2,46.6,28.73,WNW,292,1.6,1.6,94,0.08,,OVC060,0.58,VWS V14.01,2013-10-08 20:09:00,
2013-10-08 13:14:00,48.7,47.4,28.73,WSW,248,0.0,0.0,95,0.08,,OVC060,0.58,VWS V14.01,2013-10-08 20:14:00,
2013-10-08 13:19:00,49.1,47.5,28.73,SSW,202,0.9,0.9,94,0.08,,OVC060,0.58,VWS V14.01,2013-10-08 20:19:00,
2013-10-08 13:24:00,49.3,47.6,28.73,NNE,22,0.9,0.9,94,0.08,,OVC060,0.58,VWS V14.01,2013-10-08 20:24:00,
2013-10-08 13:29:00,50.0,47.8,28.73,NNW,338,3.6,3.6,92,0.08,,OVC060,0.58,VWS V14.01,2013-10-08 20:29:00,
2013-10-08 13:34:00,50.5,47.4,28.73,West,270,3.8,3.8,89,0.04,,OVC060,0.58,VWS V14.01,2013-10-08 20:34:00,
2013-10-08 13:39:00,49.8,45.2,28.73,NE,45,5.4,5.4,84,0.04,,OVC060,0.58,VWS V14.01,2013-10-08 20:39:00,
2013-10-08 13:44:00,49.3,45.0,28.70,NNE,22,10.5,10.5,85,0.04,,OVC060,0.58,VWS V14.01,2013-10-08 20:44:00,
2013-10-08 13:48:00,48.9,44.9,28.70,North,0,2.9,2.9,86,0.04,,OVC060,0.58,VWS V14.01,2013-10-08 20:48:00,
2013-10-08 13:53:00,49.1,46.0,28.70,North,0,2.7,2.7,89,0.04,,OVC060,0.58,VWS V14.01,2013-10-08 20:53:00,
2013-10-08 13:58:00,49.3,46.2,28.73,WSW,248,1.6,1.6,89,0.04,,OVC060,0.58,VWS V14.01,2013-10-08 20:58:00,
2013-10-08 14:03:00,50.7,47.9,28.73,NW,315,2.9,2.9,90,0.00,,BKN060,0.58,VWS V14.01,2013-10-08 21:03:00,
2013-10-08 14:08:00,51.6,48.5,28.73,NNE,22,5.6,5.6,89,0.00,,BKN060,0.58,VWS V14.01,2013-10-08 21:08:00,
2013-10-08 14:13:00,51.6,47.6,28.73,WNW,292,2.5,2.5,86,0.00,,BKN060,0.58,VWS V14.01,2013-10-08 21:13:00,
2013-10-08 14:18:00,52.9,48.8,28.73,SSE,158,2.7,2.7,86,0.00,,BKN060,0.58,VWS V14.01,2013-10-08 21:18:00,
2013-10-08 14:23:00,54.1,48.5,28.73,NNE,22,3.6,3.6,81,0.00,,BKN060,0.58,VWS V14.01,2013-10-08 21:23:00,
2013-10-08 14:28:00,55.0,49.3,28.73,NNE,22,2.0,2.0,81,0.00,,BKN060,0.58,VWS V14.01,2013-10-08 21:28:00,
2013-10-08 14:33:00,53.1,45.0,28.73,SE,135,3.4,3.4,74,0.00,,BKN060,0.58,VWS V14.01,2013-10-08 21:33:00,
2013-10-08 14:38:00,51.6,44.7,28.73,ENE,68,4.5,4.5,77,0.00,,BKN060,0.58,VWS V14.01,2013-10-08 21:38:00,
2013-10-08 14:43:00,49.1,41.9,28.73,ENE,68,4.9,4.9,76,0.09,,BKN060,0.67,VWS V14.01,2013-10-08 21:43:00,
2013-10-08 14:48:00,47.8,39.6,28.73,SW,225,3.1,3.1,73,0.09,,BKN060,0.67,VWS V14.01,2013-10-08 21:48:00,
2013-10-08 14:53:00,47.7,39.4,28.73,East,90,7.4,7.4,73,0.09,,BKN060,0.67,VWS V14.01,2013-10-08 21:53:00,
2013-10-08 14:58:00,47.3,39.1,28.73,ESE,112,5.4,5.4,73,0.09,,BKN060,0.67,VWS V14.01,2013-10-08 21:58:00,
2013-10-08 15:03:00,47.1,39.3,28.73,SE,135,5.6,5.6,74,0.09,, +RA,0.67,VWS V14.01,2013-10-08 22:03:00,
2013-10-08 15:08:00,46.9,40.1,28.73,ENE,68,3.4,3.4,77,0.09,, +RA,0.67,VWS V14.01,2013-10-08 22:08:00,
2013-10-08 15:13:00,46.6,39.8,28.73,ESE,112,5.4,5.4,77,0.09,, +RA,0.67,VWS V14.01,2013-10-08 22:13:00,
2013-10-08 15:18:00,46.8,39.3,28.73,NNW,338,3.6,3.6,75,0.09,, +RA,0.67,VWS V14.01,2013-10-08 22:18:00,
2013-10-08 15:23:00,46.9,41.1,28.73,SSE,158,4.9,4.9,80,0.09,, +RA,0.67,VWS V14.01,2013-10-08 22:23:00,
2013-10-08 15:28:00,46.4,38.6,28.73,ESE,112,6.3,6.3,74,0.09,, +RA,0.67,VWS V14.01,2013-10-08 22:28:00,
2013-10-08 15:33:00,46.2,38.8,28.73,East,90,5.4,5.4,75,0.09,, +RA,0.67,VWS V14.01,2013-10-08 22:33:00,
2013-10-08 15:38:00,45.9,39.1,28.73,SSE,158,5.4,5.4,77,0.09,, +RA,0.67,VWS V14.01,2013-10-08 22:38:00,
2013-10-08 15:43:00,45.7,39.9,28.73,SSE,158,2.7,2.7,80,0.09,, +RA,0.67,VWS V14.01,2013-10-08 22:43:00,
2013-10-08 15:48:00,45.5,39.4,28.73,ESE,112,3.4,3.4,79,0.09,, +RA,0.67,VWS V14.01,2013-10-08 22:48:00,
2013-10-08 15:53:00,45.7,38.9,28.73,ESE,112,4.9,4.9,77,0.09,, +RA,0.67,VWS V14.01,2013-10-08 22:53:00,
2013-10-08 15:58:00,45.5,38.7,28.73,NE,45,6.0,6.0,77,0.09,, +RA,0.67,VWS V14.01,2013-10-08 22:58:00,
2013-10-08 16:03:00,45.9,39.1,28.73,SSE,158,3.8,3.8,77,0.00,,-RA,0.67,VWS V14.01,2013-10-08 23:03:00,
2013-10-08 16:08:00,45.9,39.4,28.73,SW,225,0.0,0.0,78,0.00,,-RA,0.67,VWS V14.01,2013-10-08 23:08:00,
2013-10-08 16:13:00,45.9,41.0,28.73,NNW,338,2.0,2.0,83,0.00,,-RA,0.67,VWS V14.01,2013-10-08 23:13:00,
2013-10-08 16:18:00,46.0,41.8,28.73,NNE,22,5.4,5.4,85,0.00,,-RA,0.67,VWS V14.01,2013-10-08 23:18:00,
2013-10-08 16:23:00,46.0,41.8,28.73,SW,225,3.1,3.1,85,0.00,,-RA,0.67,VWS V14.01,2013-10-08 23:23:00,
2013-10-08 16:28:00,46.4,42.1,28.73,North,0,3.8,3.8,85,0.00,,-RA,0.67,VWS V14.01,2013-10-08 23:28:00,
2013-10-08 16:33:00,46.9,42.4,28.73,WNW,292,3.4,3.4,84,0.00,,-RA,0.67,VWS V14.01,2013-10-08 23:33:00,
2013-10-08 16:38:00,46.9,42.0,28.73,NE,45,2.5,2.5,83,0.00,,-RA,0.67,VWS V14.01,2013-10-08 23:38:00,
2013-10-08 16:43:00,46.8,41.6,28.76,North,0,4.0,4.0,82,0.00,,-RA,0.67,VWS V14.01,2013-10-08 23:43:00,
2013-10-08 16:48:00,46.8,41.6,28.76,North,0,3.1,3.1,82,0.00,,-RA,0.67,VWS V14.01,2013-10-08 23:48:00,
2013-10-08 16:53:00,46.9,41.7,28.76,SSE,158,2.0,2.0,82,0.00,,-RA,0.67,VWS V14.01,2013-10-08 23:53:00,
2013-10-08 16:58:00,47.1,41.3,28.76,SSW,202,1.1,1.1,80,0.00,,-RA,0.67,VWS V14.01,2013-10-08 23:58:00,
2013-10-08 17:03:00,46.9,40.8,28.76,NE,45,4.3,4.3,79,0.00,,CLR,0.67,VWS V14.01,2013-10-09 00:03:00,
2013-10-08 17:08:00,46.8,40.3,28.76,East,90,2.5,2.5,78,0.00,,CLR,0.67,VWS V14.01,2013-10-09 00:08:00,
2013-10-08 17:13:00,46.6,40.8,28.73,NNE,22,0.0,0.0,80,0.00,,CLR,0.67,VWS V14.01,2013-10-09 00:13:00,
2013-10-08 17:18:00,46.2,40.4,28.73,NNE,22,3.8,3.8,80,0.00,,CLR,0.67,VWS V14.01,2013-10-09 00:18:00,
2013-10-08 17:23:00,45.9,40.4,28.73,NNW,338,0.0,0.0,81,0.00,,CLR,0.67,VWS V14.01,2013-10-09 00:23:00,
2013-10-08 17:28:00,45.5,40.3,28.73,NNW,338,0.0,0.0,82,0.00,,CLR,0.67,VWS V14.01,2013-10-09 00:28:00,
2013-10-08 17:33:00,44.8,40.2,28.73,SSW,202,1.1,1.1,84,0.00,,CLR,0.67,VWS V14.01,2013-10-09 00:33:00,
2013-10-08 17:38:00,44.1,39.8,28.73,WSW,248,0.0,0.0,85,0.00,,CLR,0.67,VWS V14.01,2013-10-09 00:38:00,
2013-10-08 17:43:00,43.5,39.9,28.76,SSW,202,0.0,0.0,87,0.00,,CLR,0.67,VWS V14.01,2013-10-09 00:43:00,
2013-10-08 17:48:00,43.0,39.4,28.76,WSW,248,0.9,0.9,87,0.00,,CLR,0.67,VWS V14.01,2013-10-09 00:48:00,
2013-10-08 17:53:00,42.6,39.3,28.76,SE,135,0.0,0.0,88,0.00,,CLR,0.67,VWS V14.01,2013-10-09 00:53:00,
2013-10-08 17:58:00,42.1,39.1,28.76,SSW,202,0.9,0.9,89,0.00,,CLR,0.67,VWS V14.01,2013-10-09 00:58:00,
2013-10-08 18:03:00,41.5,38.8,28.76,WSW,248,0.0,0.0,90,0.00,,CLR,0.67,VWS V14.01,2013-10-09 01:03:00,
2013-10-08 18:08:00,41.2,38.5,28.76,WSW,248,1.1,1.1,90,0.00,,CLR,0.67,VWS V14.01,2013-10-09 01:08:00,
2013-10-08 18:13:00,40.8,38.4,28.76,WSW,248,0.0,0.0,91,0.00,,CLR,0.67,VWS V14.01,2013-10-09 01:13:00,
2013-10-08 18:18:00,40.6,38.2,28.76,WNW,292,1.1,1.1,91,0.00,,CLR,0.67,VWS V14.01,2013-10-09 01:18:00,
2013-10-08 18:23:00,40.6,38.5,28.76,SSW,202,0.0,0.0,92,0.00,,CLR,0.67,VWS V14.01,2013-10-09 01:23:00,
2013-10-08 18:28:00,40.8,39.0,28.76,NW,315,0.0,0.0,93,0.00,,CLR,0.67,VWS V14.01,2013-10-09 01:28:00,
2013-10-08 18:33:00,41.0,39.4,28.76,SW,225,1.6,1.6,94,0.00,,CLR,0.67,VWS V14.01,2013-10-09 01:33:00,
2013-10-08 18:38:00,41.0,39.7,28.76,WSW,248,0.0,0.0,95,0.00,,CLR,0.67,VWS V14.01,2013-10-09 01:38:00,
2013-10-08 18:43:00,41.0,39.7,28.76,WSW,248,0.0,0.0,95,0.00,,CLR,0.67,VWS V14.01,2013-10-09 01:43:00,
2013-10-08 18:48:00,41.0,39.7,28.76,WSW,248,0.9,0.9,95,0.00,,CLR,0.67,VWS V14.01,2013-10-09 01:48:00,
2013-10-08 18:53:00,41.0,39.7,28.76,NNE,22,0.0,0.0,95,0.00,,CLR,0.67,VWS V14.01,2013-10-09 01:53:00,
2013-10-08 18:58:00,41.0,39.7,28.76,SSW,202,2.0,2.0,95,0.00,,CLR,0.67,VWS V14.01,2013-10-09 01:58:00,
2013-10-08 19:03:00,40.6,39.6,28.76,ENE,68,0.0,0.0,96,0.00,,SCT050,0.67,VWS V14.01,2013-10-09 02:03:00,
2013-10-08 19:08:00,40.5,39.4,28.76,SSW,202,1.3,1.3,96,0.00,,SCT050,0.67,VWS V14.01,2013-10-09 02:08:00,
2013-10-08 19:13:00,40.3,39.5,28.79,NE,45,2.5,2.5,97,0.00,,SCT050,0.67,VWS V14.01,2013-10-09 02:13:00,
2013-10-08 19:18:00,39.9,39.1,28.79,NNW,338,0.0,0.0,97,0.00,,SCT050,0.67,VWS V14.01,2013-10-09 02:18:00,
2013-10-08 19:22:00,39.4,38.6,28.79,WSW,248,0.0,0.0,97,0.00,,SCT050,0.67,VWS V14.01,2013-10-09 02:22:00,
2013-10-08 19:27:00,39.4,38.6,28.79,West,270,1.3,1.3,97,0.00,,SCT050,0.67,VWS V14.01,2013-10-09 02:27:00,
2013-10-08 19:32:00,39.6,39.0,28.79,WNW,292,2.5,2.5,98,0.00,,SCT050,0.67,VWS V14.01,2013-10-09 02:32:00,
2013-10-08 19:37:00,39.6,39.0,28.79,ENE,68,2.5,2.5,98,0.00,,SCT050,0.67,VWS V14.01,2013-10-09 02:37:00,
2013-10-08 19:42:00,39.2,38.7,28.79,South,180,0.9,0.9,98,0.00,,SCT050,0.67,VWS V14.01,2013-10-09 02:42:00,
2013-10-08 19:47:00,39.2,38.7,28.79,SSW,202,1.1,1.1,98,0.00,,SCT050,0.67,VWS V14.01,2013-10-09 02:47:00,
2013-10-08 19:52:00,38.7,38.2,28.79,WNW,292,0.0,0.0,98,0.00,,SCT050,0.67,VWS V14.01,2013-10-09 02:52:00,
2013-10-08 19:57:00,38.5,38.0,28.79,ENE,68,1.6,1.6,98,0.00,,SCT050,0.67,VWS V14.01,2013-10-09 02:57:00,
2013-10-08 20:47:00,36.1,35.6,28.82,SW,225,0.0,0.0,98,0.00,,OVC070,0.67,VWS V14.01,2013-10-09 03:47:00,
2013-10-08 20:52:00,35.6,35.1,28.82,NE,45,0.0,0.0,98,0.00,,OVC070,0.67,VWS V14.01,2013-10-09 03:52:00,
2013-10-08 20:57:00,35.2,34.7,28.82,NE,45,0.0,0.0,98,0.00,,OVC070,0.67,VWS V14.01,2013-10-09 03:57:00,
2013-10-08 21:01:00,35.1,34.5,28.82,NE,45,0.0,0.0,98,0.00,,OVC060,0.67,VWS V14.01,2013-10-09 04:01:00,
2013-10-08 21:06:00,34.9,34.4,28.82,WSW,248,0.0,0.0,98,0.00,,OVC060,0.67,VWS V14.01,2013-10-09 04:06:00,
2013-10-08 21:11:00,34.5,34.0,28.82,ENE,68,0.0,0.0,98,0.00,,OVC060,0.67,VWS V14.01,2013-10-09 04:11:00,
2013-10-08 21:16:00,34.5,34.0,28.82,WNW,292,0.0,0.0,98,0.00,,OVC060,0.67,VWS V14.01,2013-10-09 04:16:00,
2013-10-08 21:21:00,34.3,33.8,28.82,NE,45,0.0,0.0,98,0.00,,OVC060,0.67,VWS V14.01,2013-10-09 04:21:00,
2013-10-08 21:26:00,34.0,33.5,28.82,NNE,22,1.3,1.3,98,0.00,,OVC060,0.67,VWS V14.01,2013-10-09 04:26:00,
2013-10-08 21:31:00,34.0,33.5,28.82,SW,225,0.0,0.0,98,0.00,,OVC060,0.67,VWS V14.01,2013-10-09 04:31:00,
2013-10-08 21:36:00,34.0,33.5,28.82,WSW,248,0.0,0.0,98,0.00,,OVC060,0.67,VWS V14.01,2013-10-09 04:36:00,
2013-10-08 21:41:00,34.0,33.5,28.82,SSE,158,0.0,0.0,98,0.00,,OVC060,0.67,VWS V14.01,2013-10-09 04:41:00,
2013-10-08 21:46:00,33.8,33.3,28.82,North,0,1.3,1.3,98,0.00,,OVC060,0.67,VWS V14.01,2013-10-09 04:46:00,
2013-10-08 21:51:00,33.6,33.1,28.82,North,0,0.0,0.0,98,0.00,,OVC060,0.67,VWS V14.01,2013-10-09 04:51:00,
2013-10-08 21:56:00,33.6,33.1,28.82,NNE,22,0.0,0.0,98,0.00,,OVC060,0.67,VWS V14.01,2013-10-09 04:56:00,
2013-10-08 22:01:00,33.6,33.1,28.82,NE,45,0.0,0.0,98,0.00,,,0.67,VWS V14.01,2013-10-09 05:01:00,
2013-10-08 22:06:00,33.6,33.1,28.82,ENE,68,0.0,0.0,98,0.00,,,0.67,VWS V14.01,2013-10-09 05:06:00,
2013-10-08 22:11:00,33.3,32.8,28.82,NE,45,0.0,0.0,98,0.00,,,0.67,VWS V14.01,2013-10-09 05:11:00,
2013-10-08 22:16:00,33.1,32.6,28.82,North,0,0.0,0.0,98,0.00,,,0.67,VWS V14.01,2013-10-09 05:16:00,
2013-10-08 22:20:00,33.1,32.6,28.82,West,270,0.0,0.0,98,0.00,,,0.67,VWS V14.01,2013-10-09 05:20:00,
2013-10-08 22:25:00,33.1,32.6,28.82,West,270,0.0,0.0,98,0.00,,,0.67,VWS V14.01,2013-10-09 05:25:00,
2013-10-08 22:30:00,32.7,32.2,28.85,NE,45,0.0,0.0,98,0.00,,,0.67,VWS V14.01,2013-10-09 05:30:00,
2013-10-08 22:35:00,32.5,32.0,28.85,NE,45,0.0,0.0,98,0.00,,,0.67,VWS V14.01,2013-10-09 05:35:00,
2013-10-08 22:40:00,32.5,32.0,28.85,NE,45,0.0,0.0,98,0.00,,,0.67,VWS V14.01,2013-10-09 05:40:00,
2013-10-08 22:45:00,32.4,31.9,28.85,WSW,248,0.0,0.0,98,0.00,,,0.67,VWS V14.01,2013-10-09 05:45:00,
2013-10-08 22:50:00,32.5,32.0,28.85,ESE,112,0.0,0.0,98,0.00,,,0.67,VWS V14.01,2013-10-09 05:50:00,
2013-10-08 22:55:00,32.2,31.7,28.85,ESE,112,0.0,0.0,98,0.00,,,0.67,VWS V14.01,2013-10-09 05:55:00,
2013-10-08 23:00:00,32.0,31.5,28.85,NE,45,0.0,0.0,98,0.00,,,0.67,VWS V14.01,2013-10-09 06:00:00,
2013-10-08 23:05:00,31.8,31.3,28.85,NE,45,0.0,0.0,98,0.00,,,0.67,VWS V14.01,2013-10-09 06:05:00,
2013-10-08 23:10:00,32.4,31.9,28.85,NE,45,0.0,0.0,98,0.00,,,0.67,VWS V14.01,2013-10-09 06:10:00,
2013-10-08 23:15:00,32.2,31.7,28.85,NE,45,0.0,0.0,98,0.00,,,0.67,VWS V14.01,2013-10-09 06:15:00,
2013-10-08 23:20:00,32.5,32.0,28.85,NE,45,0.0,0.0,98,0.00,,,0.67,VWS V14.01,2013-10-09 06:20:00,
2013-10-08 23:25:00,32.7,32.2,28.85,West,270,0.0,0.0,98,0.00,,,0.67,VWS V14.01,2013-10-09 06:25:00,
2013-10-08 23:30:00,33.3,32.8,28.85,West,270,0.0,0.0,98,0.00,,,0.67,VWS V14.01,2013-10-09 06:30:00,
2013-10-08 23:35:00,33.4,32.9,28.85,West,270,0.0,0.0,98,0.00,,,0.67,VWS V14.01,2013-10-09 06:35:00,
2013-10-08 23:40:00,33.6,33.1,28.85,West,270,0.0,0.0,98,0.00,,,0.67,VWS V14.01,2013-10-09 06:40:00,
2013-10-08 23:45:00,33.8,33.3,28.85,West,270,0.0,0.0,98,0.00,,,0.67,VWS V14.01,2013-10-09 06:45:00,
2013-10-08 23:50:00,34.2,33.7,28.85,West,270,0.0,0.0,98,0.00,,,0.67,VWS V14.01,2013-10-09 06:50:00,
2013-10-08 23:55:00,34.3,33.8,28.85,ENE,68,0.0,0.0,98,0.00,,,0.67,VWS V14.01,2013-10-09 06:55:00,